Starlink 2436

operational
NORAD ID: 48101 Int'l Des: 2021-027 Owner: SPXS Country: US Constellation: starlink
LEOCIRCULARSTARLINK_TYPE

Über Starlink 2436

Beschreibung wird geladen...

Live-Position

3D-Globus wird geladen...

Nächste Überflüge

Höhenverlauf

Altitude vs Time

uPlot chart will show altitude changes over time

Zweizeiliger Elementsatz

1 48101U 21027K 25299.50407416 .00001066 00000-0 90461-4 0 9997
2 48101 53.0554 44.2052 0001378 95.4071 264.7075 15.06394333252333
Epoch: 26. Okt. 2025 • Age: 6 hours

Aktueller Status

Höhe 565.1 km
Geschwindigkeit 7.58 km/s
Subsatellitenpunkt -49.29°S, 21.65°W
Startdatum 7. Apr. 2021
Alter 4.5 years
Typ internet

Technische Details

Klassifizierung Payload
Masse 260.00 kg
Trockenmasse 248.00 kg
Gesamtmasse 260.00 kg
Länge 0.20 m
Durchmesser 2.80 m
Spannweite 9.00 m
Form Box + pan
Hersteller SPXS
Bus-Typ Starlink
Phasenstatus In Orbit
Besitzer/Staat SPXS/US

Große Konstellationen

Loading constellations...